Location: Austin
(30.3000°N, 97.7500°W)
Time: 21:42:13
(UTC-06:00)

deb Centaur AC-2 - Pass Details

Date: 03 December 2025
Orbit: 583 x 1325 km, 30.0° (Epoch: 07 December)

Event Time Altitude Azimuth Distance (km) Brightness Sun altitude
Exits shadow 05:42:31 41° 263° (W) 876 4.4 -18.9°
Maximum altitude 05:44:03 86° 175° (S) 617 4.0 -18.6°
Drops below altitude 10° 05:48:51 10° 88° (E) 2,101 7.9 -17.6°
Sets 05:51:25 0° 88° (E) 3,115 9.1 -17.0°
